[ ตารางข้อมูล ] [ Min-Max ] [ วันนี้4 ] [ วันนี้2 ] [ เทียบ3วัน A ] [ เทียบ4วัน B ]   

วันนี้2   [ ◀ ช่วงเก่ากว่า ] [ ช่วงที่ 343 ] [ ช่วงใหม่กว่า ▶ ] [ ล่าสุด ]    [ 3 ชั่วโมง ] [ 6 ชั่วโมง ] [ 12 ชั่วโมง ] [ 24 ชั่วโมง ]   วันนี้2

อุณภูมิตู้ Knockdown4529  ราย 3 ชั่วโมง  ที่วัดได้ ในช่วงวันเวลา 29/03/2026 (05:51) ถึง 29/03/2026 (08:51) 
ความชื้นในตู้ Knockdown4529  ราย 3 ชั่วโมง  ที่วัดได้ ในช่วงวันเวลา 29/03/2026 (05:51) ถึง 29/03/2026 (08:51) 

 
DS18B20SHTC3 
IDDate d/m/Y & Timedata1
สูง
data2
ต่ำ
data3
นอก
temp
pcb
hum
pcb
Time
 6840  29/03/2026 08:50:18  27.9  27.4  28.7  27.6  71.0  08:50 
 6839  29/03/2026 08:45:37  27.8  27.4  28.7  27.2  70.9  08:45 
 6838  29/03/2026 08:40:56  27.8  27.3  28.7  27.3  71.1  08:40 
 6837  29/03/2026 08:36:12  27.6  27.2  28.7  27.4  71.3  08:36 
 6836  29/03/2026 08:31:31  27.5  27.1  28.7  27.2  71.4  08:31 
 6835  29/03/2026 08:26:49  27.4  27.1  28.4  27.1  71.5  08:26 
 6834  29/03/2026 08:22:07  27.2  27.1  28.4  27.2  71.8  08:22 
 6833  29/03/2026 08:17:26  27.1  27.0  28.2  27.0  72.0  08:17 
 6832  29/03/2026 08:12:45  27.0  26.9  28.0  26.9  72.0  08:12 
 6831  29/03/2026 08:08:03  26.9  26.9  27.7  26.8  72.1  08:08 
 6830  29/03/2026 08:03:22  26.9  26.9  27.7  26.7  72.2  08:03 
 6829  29/03/2026 07:58:41  26.9  26.8  27.6  26.6  72.2  07:58 
 6828  29/03/2026 07:53:59  26.8  26.8  27.2  26.7  72.3  07:53 
 6827  29/03/2026 07:49:18  26.8  26.8  26.8  26.6  72.4  07:49 
 6826  29/03/2026 07:44:37  26.8  26.8  26.5  26.6  72.4  07:44 
 6825  29/03/2026 07:39:55  26.8  26.8  26.4  26.6  72.5  07:39 
 6824  29/03/2026 07:35:14  26.8  26.8  26.2  26.6  72.6  07:35 
 6823  29/03/2026 07:30:31  26.8  26.8  25.9  26.5  72.5  07:30 
 6822  29/03/2026 07:25:49  26.8  26.7  25.6  26.4  72.6  07:25 
 6821  29/03/2026 07:21:07  26.8  26.8  25.5  26.5  72.5  07:21 
 6820  29/03/2026 07:16:25  26.8  26.8  25.3  26.7  72.8  07:16 
 6819  29/03/2026 07:11:43  26.7  26.8  25.2  26.6  72.7  07:11 
 6818  29/03/2026 07:07:01  26.8  26.8  25.2  26.7  72.7  07:07 
 6817  29/03/2026 07:02:19  26.8  26.8  25.2  26.6  72.7  07:02 

Data every 5 minute.


ใช้เวลาประมวลผล 0.00168 วินาที